Indy South Greenwood (HFY)

 

Airport Diagram
No Airport Diagram Available
Current Weather/Forecast (IFR Conditions)
METAR KHFY 251535Z AUTO 09009KT 4SM OVC006 M01/M02 A2993 RMK AO2 T10101016
TAF

Airport Information

All Charts
General
Chart Name View
TAKEOFF MINIMUMS
ALTERNATE MINIMUMS
TAKEOFF MINIMUMS
ALTERNATE MINIMUMS

Departures
Chart Name Download
DAWNN ONE
DAWNN ONE, CONT.1
HOOSIER FIVE
MAREO FIVE
MEARZ SIX
MEARZ SIX, CONT.1
ROCKY ONE
DAWNN ONE
DAWNN ONE, CONT.1
HOOSIER FIVE
MAREO FIVE
MEARZ SIX
MEARZ SIX, CONT.1
ROCKY ONE

Arrivals
Chart Name Download
RACYR FIVE
RACYR FIVE

Approaches
Chart Name Download
RNAV (GPS) RWY 01
RNAV (GPS) RWY 19
VOR-A
RNAV (GPS) RWY 01
RNAV (GPS) RWY 19
VOR-A


Airport Statistics
Departures Arrivals Local
All Collected Stats since June 2016: 24 13 4
2021 Stats: 0 0 0
January Stats: 0 0 0

Inbound Traffic (Arrivals) - 0

No inbound traffic.


Outbound Traffic (Departures) - 0

No outbound traffic.


Local Traffic (Pattern) - 0

No local traffic.